CZ-6A DEB

Satellite information

Favourite Embed

Satellite Type and Status

DEBRISIN ORBIT

Key statistics

Satellite CZ-6A DEB at a glance.

Uptime

969

Days in orbit

Revolutions

≈ 14.1

Per day

Orbit

SSO

Sun Synchronous Orbit

Inclination

98.8

Latest

Satellite identification and parameters

Extended collection of information and parameters for CZ-6A DEB.

Object identification

Identified? True

Debris? True

Object name: CZ-6A DEB

International designator: 2022-151MK

Object number (NORAD): 54583

Object ID (CCSDS): 54583

Country: PEOPLES REPUBLIC OF CHINA (PRC)

Current information (Y/N): Y

RCS size: SMALL

Orbital parameters

Period: 102.388 minutes

Inclination: 98.8343 deg

SMA: 7249.803 km

Apoapsis: 934.1 km

Periapsis: 809.237 km

RAAN: 177.5682 deg

Eccentricy: 0.0086115

Argument of periapsis: 276.8512 deg

Mean anomaly: 82.2865 deg

Mean motion: 14.06414764 rev/day

Mean motion (dot): 0.00001228 rev/day2

B* drag term: 0.00074473 1/REarth

Two-line elements (TLE)

Creation date: July 6, 2025, 6:05 p.m.

Reference frame: TEME

Reference center: EARTH

Epoch: July 6, 2025, 11:52 a.m. UTC

TLE line 0: 0 CZ-6A DEB

TLE line 1: 1 54583U 22151MK 25187.49454644 .00001228 00000-0 74473-3 0 9990

TLE line 2: 2 54583 98.8343 177.5682 0086115 276.8512 82.2865 14.06414764134905

Live tracking on map

Real-time ground track for satellite CZ-6A DEB.

In-orbit conjunctions

A list of the most updated potential collisions computed for object CZ-6A DEB.

Target Orbit TCA Probability of collision Miss distance Type
ARIANE 1 DEB SSO 2024-11-28 02:07:03 0.0001808213 61.0 (m) DEBRIS
COSMOS 1275 DEB LEO 2024-11-13 01:52:44 0.0001549225 159.0 (m) DEBRIS
THOR ABLESTAR DEB LEO 2024-05-27 20:36:37 0.0001781582 93.0 (m) DEBRIS

Associated space launch

Chinese satellite reported for atmospheric/ocean/environmental/spatial parameter research purposes, details TBD.

CZ-6A DEB was lifted into orbit during the mission ‘Long March 6A | Yunhai 3’, on board a Long March 6A space rocket.

The launch took place on Nov. 11, 2022, 10:52 p.m. from Launch Complex 9A.

For more information about the launch, click the button.

Launch to space Long March 6A | Yunhai 3
Long March 6A | Yunhai 3

Agency: N/A

Status: Launch Successful

Launch date: Nov. 11, 2022, 10:52 p.m. UTC

Rocket: Long March 6A

Launch pad: Launch Complex 9A

Location: Taiyuan Satellite Launch Center, People's Republic of China

...

Latest news about this satellite

There are no fresh news available about this satellite. Check back as we update our databases every day.


Newsletter sign-up

Weekly statistics, charts and insights to help you stay on top of the space industry.